Wind_Speed
23 22 21 20 18 17 17 16 16 15 15 16 16 16 15 15 14 13 13 13 13 14 14 14 14 15 16 16 17 18 20 20 21 22 23 24 24 25 25 25 25 26 26 27
22 22 20 20 18 18 17 17 17 16 16 16 17 17 17 16 16 15 15 15 15 16 16 17 17 18 19 20 20 21 22 23 23 24 25 26 26 26 26 26 27 27 28 29
22 21 20 20 19 18 17 17 17 17 17 17 18 18 18 18 18 17 17 17 18 18 19 20 20 21 22 23 23 24 25 25 26 27 27 28 28 28 28 28 29 30 30 30
22 22 21 20 19 19 18 18 17 17 18 19 19 19 19 20 20 21 20 20 20 21 22 23 23 24 25 26 26 27 27 28 29 29 29 30 30 29 29 30 30 31 31 32
24 23 22 21 20 20 19 18 18 19 19 20 20 20 21 21 22 22 23 23 23 24 25 26 26 27 27 28 29 30 30 31 32 31 31 31 30 31 31 31 31 32 32 33
23 22 22 22 20 20 20 20 20 20 20 20 20 21 22 22 23 23 24 25 26 27 28 29 29 30 30 31 32 33 33 33 33 32 32 32 32 33 33 33 34 34 35 36
23 23 22 22 20 20 20 21 20 21 21 21 21 22 23 23 24 25 26 27 27 28 29 31 33 33 33 33 34 34 34 35 34 34 34 34 34 35 35 35 36 37 37 38
22 22 23 22 20 20 21 21 21 21 22 22 23 23 24 25 26 26 27 28 28 29 30 32 34 34 34 34 34 35 35 35 35 35 35 35 36 37 37 37 38 39 39 39
23 23 22 22 22 21 21 21 22 22 23 23 24 25 25 26 26 27 28 29 29 30 32 34 35 35 35 36 35 35 35 36 36 35 35 37 38 39 39 40 41 41 42 42
22 22 22 22 23 22 22 22 23 24 24 24 24 25 25 26 27 29 29 29 30 32 33 33 34 35 35 36 36 36 37 37 37 37 37 38 39 40 41 42 43 44 45 45
21 22 22 23 23 23 23 23 23 25 26 26 26 26 26 27 27 28 29 30 31 31 32 33 34 35 35 36 35 36 36 36 37 37 38 40 41 42 43 44 45 46 48 48
22 21 22 23 23 24 24 25 25 25 25 26 27 27 27 29 30 30 30 31 31 32 33 33 33 32 32 32 33 34 35 36 37 39 41 42 43 44 45 46 47 49 50 51
22 22 23 24 24 24 25 26 27 27 27 27 28 29 29 30 30 31 31 30 31 32 32 32 32 31 31 32 34 35 37 39 41 42 44 45 46 47 49 50 51 53 54 55
21 21 22 23 24 25 25 26 26 27 27 28 29 30 30 31 31 30 31 32 32 33 33 33 33 33 34 35 36 38 40 41 43 44 46 48 49 50 52 53 55 56 57 58
20 20 21 22 23 24 25 26 27 27 27 28 29 30 30 31 31 32 32 33 33 33 34 34 35 36 37 38 39 41 42 44 45 47 48 50 52 53 54 56 57 58 60 61
19 20 21 22 23 24 25 26 27 27 28 29 29 30 32 33 33 34 34 34 35 35 35 36 37 38 39 41 42 43 45 46 48 50 51 52 54 56 57 59 60 60 61 61
18 19 20 21 23 24 25 26 26 27 28 29 30 32 34 34 35 36 36 36 36 36 37 38 39 40 42 44 45 46 48 49 51 52 53 55 57 58 59 59 60 60 60 60
19 20 21 23 23 24 25 26 27 29 30 31 31 33 34 35 36 36 36 36 36 37 39 40 41 43 44 46 47 48 49 51 52 53 55 56 57 58 58 58 58 59 59 59
20 21 23 24 24 25 26 27 28 29 30 31 31 33 34 34 34 35 36 37 38 40 41 42 43 45 46 47 49 50 52 53 54 55 56 57 57 57 57 57 57 56 55 54
22 23 24 25 25 26 27 28 29 31 32 33 33 34 35 35 36 37 38 39 41 42 44 45 46 47 49 50 51 53 53 54 55 55 56 56 55 54 54 53 52 51 50 48
24 24 25 26 27 28 30 31 32 34 35 35 36 37 38 39 40 41 42 43 44 45 46 47 48 49 50 51 52 53 53 54 54 54 53 52 51 50 50 49 48 46 45 43
25 26 28 29 30 31 32 33 34 36 37 38 39 40 41 42 42 43 45 45 46 47 47 48 49 50 50 51 51 51 51 51 50 50 49 48 47 46 45 44 43 42 41 39
27 29 30 31 33 34 35 36 37 38 39 40 41 42 43 43 44 45 46 47 47 48 48 48 48 49 49 48 48 48 48 47 46 45 45 44 43 42 40 39 38 37 37 35
30 31 33 34 35 36 37 38 39 40 41 42 43 44 45 45 46 47 47 47 48 48 47 47 46 46 46 45 45 44 43 42 41 41 40 40 38 37 36 35 34 33 31 29
33 34 36 37 38 39 39 40 41 42 43 44 45 45 46 46 46 46 46 46 46 45 44 44 43 42 42 41 40 39 38 37 37 36 36 34 33 32 32 31 29 27 25 23
34 35 36 37 39 39 40 41 42 42 43 43 43 43 43 43 43 43 43 42 42 41 40 39 39 38 37 36 35 34 33 33 33 32 30 29 29 29 27 26 24 22 20 18
34 35 36 37 38 39 39 40 40 41 41 41 41 41 41 41 40 40 39 39 38 37 36 36 35 34 33 32 31 30 30 29 29 28 27 26 25 24 22 21 19 17 15 14
Wind_Direction
241 245 254 257 260 261 259 255 253 256 259 258 258 258 259 260 259 259 260 261 261 262 261 259 258 256 255 255 257 259 260 261 263 266 268 270 273 273 275 277 280 284 286 289
243 248 253 255 256 260 257 253 253 253 254 254 253 253 256 257 257 257 260 262 262 263 263 263 261 260 259 260 261 263 264 266 267 268 270 272 273 274 276 279 282 285 287 290
244 248 252 256 253 255 255 253 251 249 251 251 252 252 254 255 256 258 261 263 264 264 263 264 265 265 263 263 264 265 267 269 270 270 272 274 275 276 279 281 283 285 287 290
242 245 250 251 248 249 251 251 251 251 251 251 251 252 253 254 254 256 259 262 264 265 265 266 268 269 268 266 267 268 268 270 270 270 271 273 275 277 280 281 284 287 289 289
241 246 249 248 247 248 250 250 251 252 253 253 253 254 254 253 254 256 258 259 263 264 266 266 268 269 269 268 268 268 269 270 273 272 272 274 275 277 279 282 284 286 289 291
240 242 246 247 245 247 249 251 250 252 253 255 254 255 255 254 255 258 259 260 260 262 265 266 268 268 268 267 268 268 269 270 273 273 273 273 275 277 280 282 283 285 288 290
241 242 244 243 244 247 250 249 250 252 254 256 255 256 257 256 257 259 262 262 262 263 264 266 266 267 267 267 267 268 269 270 272 275 275 275 276 278 280 282 284 286 288 289
237 240 242 241 244 247 251 253 253 255 256 257 258 259 260 260 261 263 265 264 264 266 267 267 267 267 267 267 267 268 270 272 273 274 274 277 279 280 282 283 286 287 288 290
236 239 241 243 245 249 253 255 256 257 259 261 261 261 263 263 263 265 266 267 266 268 268 268 266 265 266 266 267 269 270 272 271 273 274 277 280 281 282 284 286 287 288 289
239 240 242 245 248 251 255 259 260 261 262 262 262 262 264 266 266 267 268 269 270 269 269 268 267 267 268 268 269 270 271 272 273 275 277 279 281 282 284 286 286 287 289 290
240 242 245 249 253 255 258 261 264 264 263 263 264 264 266 268 270 271 270 271 272 272 271 270 271 270 269 269 269 273 274 275 277 278 280 282 283 284 285 286 287 288 289 289
241 245 249 254 257 260 262 263 265 267 268 266 266 267 268 269 271 272 272 272 272 272 272 271 273 271 270 271 274 275 278 279 281 282 283 283 283 284 285 286 287 287 288 289
248 251 254 256 258 261 264 265 267 268 270 271 270 271 271 272 273 272 272 273 273 274 273 274 277 277 277 278 279 280 281 282 283 284 284 284 284 285 286 286 287 288 288 289
251 254 256 258 261 262 264 266 267 268 270 272 273 272 272 272 272 273 273 273 274 275 276 279 280 280 281 281 281 281 281 282 284 285 286 286 286 287 287 288 289 289 290 290
256 258 260 261 262 264 267 268 270 272 274 275 275 275 272 272 274 274 274 273 274 276 278 280 281 281 282 283 284 285 285 286 286 287 287 287 288 288 288 289 290 290 291 291
260 261 262 264 266 268 269 270 272 275 276 278 277 277 277 275 275 275 274 274 275 277 279 281 282 283 285 286 286 286 287 288 289 289 288 288 290 290 290 290 291 292 292 292
262 264 265 268 270 271 272 273 275 276 277 277 277 276 276 277 275 275 274 274 275 277 281 283 285 286 286 287 288 288 289 289 290 289 289 290 291 291 292 292 292 292 292 292
265 265 268 271 271 274 275 276 277 279 278 279 279 279 278 279 280 279 277 278 279 281 284 285 287 287 288 289 290 290 290 291 291 291 291 292 292 292 293 293 293 293 293 294
270 271 273 275 275 277 279 280 282 282 281 281 281 280 280 281 282 282 282 283 285 286 287 288 289 290 291 291 292 292 292 292 292 292 292 293 293 293 293 294 294 295 295 296
274 276 277 279 280 281 282 283 283 282 282 282 282 282 283 283 284 285 286 288 290 291 292 292 292 292 292 293 293 293 293 293 293 293 294 293 294 294 295 295 296 297 297 297
276 279 281 282 282 282 282 282 282 282 282 283 284 285 285 285 286 288 289 291 292 292 292 292 293 293 293 293 294 294 294 294 294 294 295 295 295 296 297 297 298 298 298 298
277 279 281 282 282 282 281 281 282 283 284 285 286 288 288 288 289 290 291 292 293 293 293 293 294 294 294 294 294 294 294 295 295 295 296 296 296 297 298 298 298 298 298 298
277 279 280 281 282 281 281 283 284 286 287 288 289 290 291 291 292 292 293 293 293 294 294 293 293 293 293 294 294 295 295 295 296 296 296 296 297 297 298 298 299 299 299 299
277 279 281 282 283 284 284 285 287 288 289 290 291 291 292 292 292 292 293 293 293 293 293 293 293 293 293 294 294 295 296 296 297 297 298 298 298 298 299 300 301 300 300 299
278 280 282 284 285 287 288 288 289 290 291 292 292 292 293 293 293 293 293 293 293 293 292 292 293 293 294 294 295 296 297 297 298 299 300 299 299 300 301 302 301 300 299 298
283 284 286 287 288 289 290 291 292 292 293 293 293 293 293 294 294 294 293 293 293 293 292 293 294 294 295 295 297 298 298 299 300 301 300 300 301 302 302 302 302 300 298 299
285 286 288 289 289 290 291 292 293 293 294 294 294 294 294 294 294 294 294 294 293 293 293 293 293 294 295 296 297 297 298 298 300 300 300 301 301 302 303 303 302 301 299 300
Height
5832 5833 5834 5835 5835 5835 5836 5837 5838 5838 5838 5838 5837 5837 5837 5837 5838 5838 5839 5839 5840 5840 5841 5842 5842 5843 5843 5844 5845 5845 5845 5845 5846 5845 5845 5845 5844 5843 5842 5841 5840 5838 5836 5834
5826 5827 5828 5829 5830 5830 5830 5831 5832 5832 5833 5832 5832 5832 5833 5833 5834 5834 5835 5835 5836 5836 5837 5837 5838 5838 5839 5839 5839 5840 5840 5840 5840 5839 5839 5838 5838 5837 5836 5834 5833 5831 5829 5827
5821 5821 5823 5824 5825 5825 5825 5826 5826 5827 5828 5827 5828 5828 5829 5829 5829 5830 5830 5831 5831 5831 5832 5833 5833 5833 5833 5834 5834 5834 5834 5833 5833 5833 5832 5831 5831 5830 5829 5827 5825 5823 5821 5819
5814 5816 5818 5821 5819 5819 5820 5820 5821 5821 5822 5822 5823 5823 5824 5824 5825 5825 5825 5825 5826 5826 5826 5827 5827 5827 5827 5827 5827 5827 5827 5827 5826 5825 5825 5824 5823 5822 5821 5819 5817 5815 5813 5811
5808 5810 5812 5813 5813 5814 5814 5815 5815 5816 5816 5817 5817 5818 5818 5818 5819 5819 5820 5820 5820 5820 5820 5820 5820 5820 5820 5820 5820 5820 5820 5819 5818 5817 5817 5816 5815 5813 5812 5810 5808 5806 5804 5802
5802 5804 5806 5807 5807 5807 5810 5809 5810 5810 5810 5811 5812 5812 5813 5813 5813 5813 5813 5813 5813 5813 5813 5813 5813 5813 5813 5813 5812 5811 5811 5811 5810 5809 5808 5807 5805 5804 5802 5801 5799 5796 5794 5792
5795 5797 5799 5799 5800 5802 5804 5804 5804 5804 5804 5805 5805 5806 5806 5806 5806 5806 5806 5806 5806 5806 5806 5806 5805 5805 5804 5804 5803 5802 5802 5801 5801 5799 5798 5797 5796 5794 5793 5791 5789 5786 5784 5781
5788 5790 5793 5792 5794 5796 5796 5796 5797 5798 5798 5798 5799 5799 5799 5799 5799 5799 5799 5799 5798 5798 5798 5797 5796 5796 5795 5795 5794 5793 5793 5792 5791 5790 5789 5787 5786 5784 5782 5780 5778 5776 5773 5770
5782 5785 5785 5786 5787 5788 5789 5790 5791 5791 5791 5791 5792 5792 5792 5792 5792 5791 5791 5791 5790 5790 5789 5788 5788 5786 5786 5785 5784 5783 5782 5782 5781 5780 5778 5777 5775 5773 5771 5769 5766 5764 5761 5758
5775 5776 5778 5779 5780 5781 5782 5783 5783 5784 5784 5784 5784 5784 5784 5784 5784 5783 5783 5783 5782 5781 5780 5779 5778 5777 5777 5775 5774 5773 5772 5772 5770 5769 5768 5766 5764 5762 5760 5757 5755 5752 5749 5746
5768 5770 5772 5773 5774 5775 5775 5776 5776 5776 5776 5776 5776 5776 5776 5776 5775 5775 5774 5774 5773 5772 5771 5770 5769 5768 5767 5766 5765 5764 5763 5762 5760 5758 5757 5755 5753 5750 5748 5745 5742 5739 5736 5732
5763 5764 5766 5766 5767 5768 5768 5768 5769 5769 5769 5768 5768 5767 5767 5767 5767 5766 5766 5765 5764 5763 5762 5761 5759 5758 5757 5756 5756 5754 5753 5751 5750 5748 5746 5743 5741 5738 5735 5732 5728 5725 5721 5718
5756 5757 5758 5759 5760 5760 5761 5761 5761 5761 5761 5760 5760 5759 5759 5758 5758 5757 5756 5756 5755 5753 5752 5751 5750 5749 5747 5747 5746 5744 5743 5741 5738 5736 5734 5731 5728 5724 5721 5718 5714 5710 5706 5702
5750 5751 5751 5752 5753 5753 5753 5753 5753 5753 5753 5752 5751 5751 5750 5749 5749 5748 5747 5746 5745 5744 5743 5741 5740 5739 5738 5737 5735 5734 5731 5729 5726 5724 5721 5718 5714 5710 5706 5703 5699 5694 5689 5684
5743 5744 5745 5745 5745 5746 5746 5746 5745 5745 5745 5744 5743 5742 5741 5740 5739 5739 5738 5737 5736 5735 5733 5732 5731 5729 5728 5726 5724 5722 5719 5716 5714 5710 5707 5703 5699 5695 5691 5686 5682 5677 5672 5666
5737 5738 5738 5738 5738 5739 5739 5738 5738 5737 5736 5736 5735 5734 5733 5731 5730 5729 5728 5727 5726 5725 5724 5722 5721 5719 5717 5715 5712 5709 5706 5703 5700 5696 5692 5688 5683 5679 5674 5669 5664 5658 5653 5648
5731 5732 5732 5732 5732 5732 5731 5731 5730 5729 5728 5727 5726 5725 5723 5722 5721 5719 5718 5717 5715 5714 5713 5711 5709 5707 5705 5703 5700 5696 5693 5689 5685 5681 5677 5672 5667 5662 5657 5651 5646 5641 5635 5630
5725 5726 5726 5726 5725 5725 5724 5723 5722 5721 5720 5719 5717 5715 5714 5712 5710 5709 5708 5706 5705 5703 5701 5699 5697 5695 5692 5689 5685 5682 5678 5674 5669 5665 5660 5655 5650 5645 5639 5634 5629 5623 5618 5612
5719 5719 5719 5718 5718 5717 5716 5715 5714 5712 5711 5709 5708 5706 5704 5702 5701 5699 5697 5696 5694 5692 5689 5687 5684 5681 5678 5674 5670 5666 5662 5658 5653 5648 5643 5638 5633 5628 5622 5617 5611 5606 5600 5595
5712 5712 5712 5711 5710 5709 5708 5707 5706 5704 5702 5701 5699 5697 5695 5693 5691 5689 5687 5684 5682 5679 5676 5673 5670 5666 5663 5659 5655 5650 5646 5641 5636 5631 5626 5621 5616 5611 5605 5600 5595 5590 5585 5580
5705 5705 5704 5703 5702 5701 5700 5698 5697 5695 5693 5691 5689 5687 5685 5682 5680 5677 5675 5672 5669 5666 5662 5659 5655 5651 5647 5643 5638 5634 5629 5625 5620 5614 5609 5605 5600 5595 5590 5585 5580 5575 5571 5566
5698 5697 5696 5695 5693 5692 5690 5689 5687 5685 5683 5680 5678 5676 5673 5670 5667 5664 5661 5659 5655 5651 5648 5644 5640 5636 5632 5627 5623 5618 5613 5609 5604 5599 5594 5590 5585 5581 5576 5571 5567 5562 5558 5553
5689 5688 5687 5685 5684 5682 5680 5678 5676 5674 5671 5669 5666 5663 5660 5657 5654 5651 5647 5644 5640 5636 5633 5629 5625 5621 5616 5612 5608 5603 5599 5594 5590 5585 5580 5576 5572 5568 5564 5559 5555 5551 5546 5542
5680 5679 5677 5675 5673 5671 5669 5667 5664 5661 5659 5656 5653 5650 5647 5643 5640 5636 5633 5629 5625 5622 5618 5614 5610 5606 5602 5598 5594 5589 5585 5581 5576 5572 5568 5564 5560 5556 5552 5548 5544 5540 5536 5533
5670 5668 5666 5664 5662 5660 5657 5655 5652 5649 5646 5643 5639 5636 5633 5629 5625 5622 5618 5614 5610 5607 5603 5600 5596 5592 5588 5585 5581 5577 5573 5569 5565 5561 5557 5553 5549 5546 5542 5539 5535 5531 5528 5525
5660 5658 5655 5653 5651 5648 5645 5642 5639 5636 5633 5629 5626 5622 5618 5615 5611 5607 5604 5600 5596 5593 5590 5586 5583 5580 5576 5573 5569 5565 5562 5558 5554 5550 5547 5544 5540 5537 5534 5530 5527 5524 5522 5519
5649 5646 5644 5642 5639 5636 5633 5630 5627 5623 5619 5616 5612 5609 5605 5601 5598 5594 5591 5587 5584 5580 5577 5574 5571 5568 5565 5562 5559 5555 5552 5549 5545 5542 5539 5536 5532 5529 5527 5524 5521 5518 5516 5514